SIRIUS 1 1 26390U 00035A 12033.50358243 +.00000108 +00000-0 +00000-0 0 09817 2 26390 060.6569 247.7551 2677732 270.3546 059.4700 01.00276636042479 SIRIUS 2 1 26483U 00051A 12035.16452648 .00000002 00000-0 10000-3 0 6113 2 26483 063.9229 127.4546 2675537 269.9319 059.6661 01.00283361 41821 SIRIUS 3 1 26626U 00077A 12033.83508208 -.00000107 00000-0 00000+0 0 8862 2 26626 064.2202 007.5720 2691467 269.6929 059.7590 01.00277389 40948 XM-2 1 26724U 01012A 12034.40121910 -.00000020 +00000-0 +10000-3 0 01532 2 26724 000.0682 285.3761 0003724 028.4968 208.2697 01.00272423039933 XM-1 1 26761U 01018A 12035.53104341 -.00000021 00000-0 10000-3 0 9655 2 26761 000.0732 245.1886 0003696 344.2607 340.5652 01.00272635 39418 XM-3 1 28626U 05008A 12035.38103878 -.00000204 00000-0 10000-3 0 1056 2 28626 000.0045 345.0364 0000264 312.9116 248.0511 01.00271520 25450 XM-4 1 29520U 06049A 12035.24164498 -.00000021 00000-0 10000-3 0 8296 2 29520 000.0097 223.0366 0000033 323.6859 278.8030 01.00272845 19399